Year,Month,Day,Hour,Minute,Value (Times are PST for windgust in km/hr)
2012,07,03,00,00,3.20
2012,07,03,00,01,1.60
2012,07,03,00,02,1.60
2012,07,03,00,03,1.60
2012,07,03,00,04,3.20
2012,07,03,00,05,1.60
2012,07,03,00,06,3.20
2012,07,03,00,07,1.60
2012,07,03,00,08,4.80
2012,07,03,00,09,3.20
2012,07,03,00,10,3.20
2012,07,03,00,11,3.20
2012,07,03,00,20,3.20
2012,07,03,00,21,1.60
2012,07,03,00,22,3.20
2012,07,03,00,23,1.60
2012,07,03,00,28,1.60
2012,07,03,00,29,1.60
2012,07,03,00,30,1.60
2012,07,03,00,31,1.60
2012,07,03,00,32,1.60
2012,07,03,00,33,3.20
2012,07,03,00,34,3.20
2012,07,03,00,35,3.20
2012,07,03,00,36,3.20
2012,07,03,00,37,3.20
2012,07,03,00,38,1.60
2012,07,03,00,39,1.60
2012,07,03,00,40,1.60
2012,07,03,00,42,1.60
2012,07,03,00,43,1.60
2012,07,03,00,45,1.60
2012,07,03,00,46,1.60
2012,07,03,00,47,1.60
2012,07,03,00,48,1.60
2012,07,03,00,49,1.60
2012,07,03,00,50,1.60
2012,07,03,00,51,1.60
2012,07,03,00,52,1.60
2012,07,03,00,54,1.60
2012,07,03,00,55,1.60
2012,07,03,00,56,3.20
2012,07,03,00,57,1.60
2012,07,03,00,58,3.20
2012,07,03,00,59,3.20
2012,07,03,01,00,4.80
2012,07,03,01,01,3.20
2012,07,03,01,02,3.20
2012,07,03,01,03,1.60
2012,07,03,01,04,1.60
2012,07,03,01,05,3.20
2012,07,03,01,06,3.20
2012,07,03,01,07,3.20
2012,07,03,01,08,3.20
2012,07,03,01,09,3.20
2012,07,03,01,10,1.60
2012,07,03,01,11,1.60
2012,07,03,01,12,3.20
2012,07,03,01,13,4.80
2012,07,03,01,14,3.20
2012,07,03,01,15,3.20
2012,07,03,01,16,1.60
2012,07,03,01,19,1.60
2012,07,03,01,20,3.20
2012,07,03,01,22,1.60
2012,07,03,01,23,3.20
2012,07,03,01,24,3.20
2012,07,03,01,25,1.60
2012,07,03,01,26,3.20
2012,07,03,01,27,3.20
2012,07,03,01,28,1.60
2012,07,03,01,29,3.20
2012,07,03,01,30,1.60
2012,07,03,01,31,1.60
2012,07,03,01,36,1.60
2012,07,03,01,37,1.60
2012,07,03,01,50,1.60
2012,07,03,01,51,1.60
2012,07,03,01,56,1.60
2012,07,03,01,57,1.60
2012,07,03,02,49,1.60
2012,07,03,02,50,1.60
2012,07,03,02,53,1.60
2012,07,03,02,56,1.60
2012,07,03,02,58,1.60
2012,07,03,02,59,1.60
2012,07,03,03,00,1.60
2012,07,03,03,02,3.20
2012,07,03,03,03,3.20
2012,07,03,03,04,3.20
2012,07,03,03,06,1.60
2012,07,03,03,07,3.20
2012,07,03,03,08,3.20
2012,07,03,03,09,1.60
2012,07,03,03,10,1.60
2012,07,03,03,11,1.60
2012,07,03,03,12,3.20
2012,07,03,03,13,3.20
2012,07,03,03,14,4.80
2012,07,03,03,15,6.40
2012,07,03,03,16,6.40
2012,07,03,03,17,6.40
2012,07,03,03,18,6.40
2012,07,03,03,19,9.60
2012,07,03,03,20,9.60
2012,07,03,03,21,9.60
2012,07,03,03,22,14.50
2012,07,03,03,23,9.60
2012,07,03,03,24,6.40
2012,07,03,03,25,6.40
2012,07,03,03,26,8.10
2012,07,03,03,27,6.40
2012,07,03,03,28,4.80
2012,07,03,03,29,6.40
2012,07,03,03,30,6.40
2012,07,03,03,31,11.30
2012,07,03,03,32,9.60
2012,07,03,03,33,8.10
2012,07,03,03,34,6.40
2012,07,03,03,35,9.60
2012,07,03,03,36,9.60
2012,07,03,03,37,6.40
2012,07,03,03,38,1.60
2012,07,03,03,39,6.40
2012,07,03,03,40,8.10
2012,07,03,03,41,6.40
2012,07,03,03,42,4.80
2012,07,03,03,43,4.80
2012,07,03,03,44,8.10
2012,07,03,03,45,4.80
2012,07,03,03,46,1.60
2012,07,03,03,47,3.20
2012,07,03,03,48,1.60
2012,07,03,03,49,4.80
2012,07,03,03,50,4.80
2012,07,03,03,51,3.20
2012,07,03,03,52,3.20
2012,07,03,03,53,3.20
2012,07,03,03,54,6.40
2012,07,03,03,55,4.80
2012,07,03,03,56,3.20
2012,07,03,03,57,3.20
2012,07,03,03,58,3.20
2012,07,03,03,59,3.20
2012,07,03,04,00,4.80
2012,07,03,04,01,6.40
2012,07,03,04,02,4.80
2012,07,03,04,05,3.20
2012,07,03,04,06,1.60
2012,07,03,04,07,1.60
2012,07,03,04,08,1.60
2012,07,03,04,09,1.60
2012,07,03,04,10,3.20
2012,07,03,04,11,3.20
2012,07,03,04,12,1.60
2012,07,03,04,13,4.80
2012,07,03,04,14,4.80
2012,07,03,04,15,3.20
2012,07,03,04,16,4.80
2012,07,03,04,17,3.20
2012,07,03,04,18,1.60
2012,07,03,04,19,3.20
2012,07,03,04,27,4.80
2012,07,03,04,28,6.40
2012,07,03,04,29,1.60
2012,07,03,04,30,3.20
2012,07,03,04,31,4.80
2012,07,03,04,32,1.60
2012,07,03,04,33,3.20
2012,07,03,04,34,1.60
2012,07,03,04,35,3.20
2012,07,03,04,36,4.80
2012,07,03,04,37,4.80
2012,07,03,04,38,4.80
2012,07,03,04,39,3.20
2012,07,03,04,40,4.80
2012,07,03,04,41,6.40
2012,07,03,04,42,4.80
2012,07,03,04,43,4.80
2012,07,03,04,44,3.20
2012,07,03,04,45,4.80
2012,07,03,04,46,6.40
2012,07,03,04,47,4.80
2012,07,03,04,48,4.80
2012,07,03,04,49,1.60
2012,07,03,04,50,6.40
2012,07,03,04,51,4.80
2012,07,03,04,52,3.20
2012,07,03,04,53,3.20
2012,07,03,04,54,3.20
2012,07,03,04,55,3.20
2012,07,03,04,56,4.80
2012,07,03,04,57,4.80
2012,07,03,04,58,1.60
2012,07,03,04,59,8.10
2012,07,03,05,00,6.40
2012,07,03,05,01,8.10
2012,07,03,05,02,4.80
2012,07,03,05,03,6.40
2012,07,03,05,04,6.40
2012,07,03,05,05,6.40
2012,07,03,05,06,6.40
2012,07,03,05,07,4.80
2012,07,03,05,08,4.80
2012,07,03,05,09,6.40
2012,07,03,05,10,6.40
2012,07,03,05,11,8.10
2012,07,03,05,12,8.10
2012,07,03,05,13,8.10
2012,07,03,05,14,6.40
2012,07,03,05,15,6.40
2012,07,03,05,16,6.40
2012,07,03,05,17,6.40
2012,07,03,05,18,3.20
2012,07,03,05,19,4.80
2012,07,03,05,20,3.20
2012,07,03,05,22,3.20
2012,07,03,05,23,4.80
2012,07,03,05,24,6.40
2012,07,03,05,25,4.80
2012,07,03,05,26,6.40
2012,07,03,05,27,8.10
2012,07,03,05,28,11.30
2012,07,03,05,29,8.10
2012,07,03,05,30,3.20
2012,07,03,05,31,6.40
2012,07,03,05,32,6.40
2012,07,03,05,33,6.40
2012,07,03,05,35,3.20
2012,07,03,05,36,3.20
2012,07,03,05,38,1.60
2012,07,03,05,39,1.60
2012,07,03,05,40,1.60
2012,07,03,05,41,3.20
2012,07,03,05,42,3.20
2012,07,03,05,43,3.20
2012,07,03,05,44,3.20
2012,07,03,05,54,1.60
2012,07,03,05,55,4.80
2012,07,03,05,56,3.20
2012,07,03,05,58,1.60
2012,07,03,05,59,1.60
2012,07,03,06,06,1.60
2012,07,03,06,07,3.20
2012,07,03,06,08,4.80
2012,07,03,06,09,1.60
2012,07,03,06,10,3.20
2012,07,03,06,11,3.20
2012,07,03,06,12,4.80
2012,07,03,06,13,3.20
2012,07,03,06,14,1.60
2012,07,03,06,17,1.60
2012,07,03,06,18,3.20
2012,07,03,06,19,1.60
2012,07,03,06,21,4.80
2012,07,03,06,22,4.80
2012,07,03,06,23,1.60
2012,07,03,06,24,3.20
2012,07,03,06,25,1.60
2012,07,03,06,26,3.20
2012,07,03,06,27,4.80
2012,07,03,06,28,4.80
2012,07,03,06,29,9.60
2012,07,03,06,30,6.40
2012,07,03,06,31,6.40
2012,07,03,06,32,9.60
2012,07,03,06,33,11.30
2012,07,03,06,34,6.40
2012,07,03,06,35,6.40
2012,07,03,06,36,11.30
2012,07,03,06,37,3.20
2012,07,03,06,38,11.30
2012,07,03,06,39,8.10
2012,07,03,06,40,4.80
2012,07,03,06,41,1.60
2012,07,03,06,42,4.80
2012,07,03,06,43,4.80
2012,07,03,06,44,9.60
2012,07,03,06,45,11.30
2012,07,03,06,46,14.50
2012,07,03,06,47,16.10
2012,07,03,06,48,11.30
2012,07,03,06,49,14.50
2012,07,03,06,50,11.30
2012,07,03,06,51,14.50
2012,07,03,06,52,11.30
2012,07,03,06,53,14.50
2012,07,03,06,54,11.30
2012,07,03,06,55,24.20
2012,07,03,06,56,11.30
2012,07,03,06,57,8.10
2012,07,03,06,58,6.40
2012,07,03,06,59,6.40
2012,07,03,07,00,4.80
2012,07,03,07,01,11.30
2012,07,03,07,02,11.30
2012,07,03,07,03,6.40
2012,07,03,07,04,8.10
2012,07,03,07,05,3.20
2012,07,03,07,06,3.20
2012,07,03,07,08,1.60
2012,07,03,07,09,6.40
2012,07,03,07,10,14.50
2012,07,03,07,11,14.50
2012,07,03,07,12,11.30
2012,07,03,07,13,9.60
2012,07,03,07,14,20.90
2012,07,03,07,15,14.50
2012,07,03,07,16,17.70
2012,07,03,07,17,9.60
2012,07,03,07,18,6.40
2012,07,03,07,19,9.60
2012,07,03,07,20,8.10
2012,07,03,07,21,14.50
2012,07,03,07,22,11.30
2012,07,03,07,23,9.60
2012,07,03,07,24,4.80
2012,07,03,07,25,6.40
2012,07,03,07,26,6.40
2012,07,03,07,27,14.50
2012,07,03,07,28,16.10
2012,07,03,07,29,14.50
2012,07,03,07,30,19.30
2012,07,03,07,31,8.10
2012,07,03,07,32,14.50
2012,07,03,07,33,17.70
2012,07,03,07,34,6.40
2012,07,03,07,35,17.70
2012,07,03,07,36,9.60
2012,07,03,07,37,9.60
2012,07,03,07,38,11.30
2012,07,03,07,39,16.10
2012,07,03,07,40,12.90
2012,07,03,07,41,17.70
2012,07,03,07,42,16.10
2012,07,03,07,43,8.10
2012,07,03,07,44,8.10
2012,07,03,07,45,6.40
2012,07,03,07,46,6.40
2012,07,03,07,47,4.80
2012,07,03,07,48,9.60
2012,07,03,07,49,19.30
2012,07,03,07,50,17.70
2012,07,03,07,51,16.10
2012,07,03,07,52,17.70
2012,07,03,07,53,14.50
2012,07,03,07,54,11.30
2012,07,03,07,55,17.70
2012,07,03,07,56,9.60
2012,07,03,07,57,9.60
2012,07,03,07,58,8.10
2012,07,03,07,59,19.30
2012,07,03,08,00,16.10
2012,07,03,08,01,11.30
2012,07,03,08,02,9.60
2012,07,03,08,03,9.60
2012,07,03,08,04,9.60
2012,07,03,08,05,11.30
2012,07,03,08,06,6.40
2012,07,03,08,07,8.10
2012,07,03,08,08,4.80
2012,07,03,08,09,17.70
2012,07,03,08,10,8.10
2012,07,03,08,11,6.40
2012,07,03,08,12,8.10
2012,07,03,08,13,16.10
2012,07,03,08,14,9.60
2012,07,03,08,15,4.80
2012,07,03,08,16,6.40
2012,07,03,08,17,6.40
2012,07,03,08,18,8.10
2012,07,03,08,19,14.50
2012,07,03,08,20,19.30
2012,07,03,08,21,14.50
2012,07,03,08,22,11.30
2012,07,03,08,23,11.30
2012,07,03,08,24,11.30
2012,07,03,08,25,11.30
2012,07,03,08,26,8.10
2012,07,03,08,27,4.80
2012,07,03,08,28,8.10
2012,07,03,08,29,8.10
2012,07,03,08,30,16.10
2012,07,03,08,31,8.10
2012,07,03,08,32,8.10
2012,07,03,08,33,16.10
2012,07,03,08,34,8.10
2012,07,03,08,35,17.70
2012,07,03,08,36,11.30
2012,07,03,08,37,9.60
2012,07,03,08,38,9.60
2012,07,03,08,39,8.10
2012,07,03,08,40,9.60
2012,07,03,08,41,11.30
2012,07,03,08,42,6.40
2012,07,03,08,43,3.20
2012,07,03,08,44,6.40
2012,07,03,08,45,8.10
2012,07,03,08,46,9.60
2012,07,03,08,47,8.10
2012,07,03,08,48,16.10
2012,07,03,08,49,8.10
2012,07,03,08,50,11.30
2012,07,03,08,51,11.30
2012,07,03,08,52,8.10
2012,07,03,08,53,11.30
2012,07,03,08,54,12.90
2012,07,03,08,55,19.30
2012,07,03,08,56,24.20
2012,07,03,08,57,11.30
2012,07,03,08,58,14.50
2012,07,03,08,59,14.50
2012,07,03,09,00,16.10
2012,07,03,09,01,11.30
2012,07,03,09,02,11.30
2012,07,03,09,03,20.90
2012,07,03,09,04,11.30
2012,07,03,09,05,8.10
2012,07,03,09,06,19.30
2012,07,03,09,07,22.50
2012,07,03,09,08,19.30
2012,07,03,09,09,17.70
2012,07,03,09,10,14.50
2012,07,03,09,11,16.10
2012,07,03,09,12,19.30
2012,07,03,09,13,22.50
2012,07,03,09,14,19.30
2012,07,03,09,15,19.30
2012,07,03,09,16,12.90
2012,07,03,09,17,14.50
2012,07,03,09,18,17.70
2012,07,03,09,19,14.50
2012,07,03,09,20,25.70
2012,07,03,09,21,24.20
2012,07,03,09,22,24.20
2012,07,03,09,23,29.00
2012,07,03,09,24,29.00
2012,07,03,09,25,22.50
2012,07,03,09,26,17.70
2012,07,03,09,27,11.30
2012,07,03,09,28,9.60
2012,07,03,09,29,19.30
2012,07,03,09,30,20.90
2012,07,03,09,31,12.90
2012,07,03,09,32,17.70
2012,07,03,09,33,20.90
2012,07,03,09,34,8.10
2012,07,03,09,35,19.30
2012,07,03,09,36,29.00
2012,07,03,09,37,19.30
2012,07,03,09,38,17.70
2012,07,03,09,39,9.60
2012,07,03,09,40,12.90
2012,07,03,09,41,16.10
2012,07,03,09,42,20.90
2012,07,03,09,43,14.50
2012,07,03,09,44,33.80
2012,07,03,09,45,24.20
2012,07,03,09,46,17.70
2012,07,03,09,47,16.10
2012,07,03,09,48,9.60
2012,07,03,09,49,20.90
2012,07,03,09,50,24.20
2012,07,03,09,51,22.50
2012,07,03,09,52,17.70
2012,07,03,09,53,17.70
2012,07,03,09,54,14.50
2012,07,03,09,55,24.20
2012,07,03,09,56,17.70
2012,07,03,09,57,20.90
2012,07,03,09,58,19.30
2012,07,03,09,59,11.30
2012,07,03,10,00,19.30
2012,07,03,10,01,17.70
2012,07,03,10,02,16.10
2012,07,03,10,03,17.70
2012,07,03,10,04,12.90
2012,07,03,10,05,9.60
2012,07,03,10,06,17.70
2012,07,03,10,07,11.30
2012,07,03,10,08,8.10
2012,07,03,10,09,14.50
2012,07,03,10,10,22.50
2012,07,03,10,11,12.90
2012,07,03,10,12,9.60
2012,07,03,10,13,22.50
2012,07,03,10,14,16.10
2012,07,03,10,15,22.50
2012,07,03,10,16,29.00
2012,07,03,10,17,14.50
2012,07,03,10,18,24.20
2012,07,03,10,19,16.10
2012,07,03,10,20,27.40
2012,07,03,10,21,20.90
2012,07,03,10,22,16.10
2012,07,03,10,23,19.30
2012,07,03,10,24,22.50
2012,07,03,10,25,20.90
2012,07,03,10,26,17.70
2012,07,03,10,27,17.70
2012,07,03,10,28,9.60
2012,07,03,10,29,6.40
2012,07,03,10,30,17.70
2012,07,03,10,31,22.50
2012,07,03,10,32,16.10
2012,07,03,10,33,16.10
2012,07,03,10,34,11.30
2012,07,03,10,35,17.70
2012,07,03,10,36,32.20
2012,07,03,10,37,37.00
2012,07,03,10,38,14.50
2012,07,03,10,39,19.30
2012,07,03,10,40,14.50
2012,07,03,10,41,29.00
2012,07,03,10,42,32.20
2012,07,03,10,43,11.30
2012,07,03,10,44,25.70
2012,07,03,10,45,24.20
2012,07,03,10,46,14.50
2012,07,03,10,47,17.70
2012,07,03,10,48,22.50
2012,07,03,10,49,32.20
2012,07,03,10,50,19.30
2012,07,03,10,51,19.30
2012,07,03,10,52,33.80
2012,07,03,10,53,17.70
2012,07,03,10,54,20.90
2012,07,03,10,55,12.90
2012,07,03,10,56,29.00
2012,07,03,10,57,20.90
2012,07,03,10,58,38.60
2012,07,03,10,59,30.60
2012,07,03,11,00,32.20
2012,07,03,11,01,20.90
2012,07,03,11,02,16.10
2012,07,03,11,03,17.70
2012,07,03,11,04,19.30
2012,07,03,11,05,22.50
2012,07,03,11,06,25.70
2012,07,03,11,07,27.40
2012,07,03,11,08,25.70
2012,07,03,11,09,24.20
2012,07,03,11,10,32.20
2012,07,03,11,11,29.00
2012,07,03,11,12,33.80
2012,07,03,11,13,14.50
2012,07,03,11,14,9.60
2012,07,03,11,15,24.20
2012,07,03,11,16,24.20
2012,07,03,11,17,24.20
2012,07,03,11,18,32.20
2012,07,03,11,19,32.20
2012,07,03,11,20,25.70
2012,07,03,11,21,25.70
2012,07,03,11,22,20.90
2012,07,03,11,23,32.20
2012,07,03,11,24,37.00
2012,07,03,11,25,30.60
2012,07,03,11,26,27.40
2012,07,03,11,27,32.20
2012,07,03,11,28,19.30
2012,07,03,11,29,19.30
2012,07,03,11,30,20.90
2012,07,03,11,31,20.90
2012,07,03,11,32,19.30
2012,07,03,11,33,27.40
2012,07,03,11,34,11.30
2012,07,03,11,35,11.30
2012,07,03,11,36,6.40
2012,07,03,11,37,11.30
2012,07,03,11,38,20.90
2012,07,03,11,39,29.00
2012,07,03,11,40,9.60
2012,07,03,11,41,27.40
2012,07,03,11,42,19.30
2012,07,03,11,43,22.50
2012,07,03,11,44,24.20
2012,07,03,11,45,17.70
2012,07,03,11,46,16.10
2012,07,03,11,47,17.70
2012,07,03,11,48,17.70
2012,07,03,11,49,22.50
2012,07,03,11,50,17.70
2012,07,03,11,51,11.30
2012,07,03,11,52,32.20
2012,07,03,11,53,24.20
2012,07,03,11,54,6.40
2012,07,03,11,55,17.70
2012,07,03,11,56,20.90
2012,07,03,11,57,19.30
2012,07,03,11,58,14.50
2012,07,03,11,59,17.70
2012,07,03,12,00,9.60
2012,07,03,12,01,9.60
2012,07,03,12,02,9.60
2012,07,03,12,03,16.10
2012,07,03,12,04,11.30
2012,07,03,12,05,22.50
2012,07,03,12,06,19.30
2012,07,03,12,07,20.90
2012,07,03,12,08,9.60
2012,07,03,12,09,22.50
2012,07,03,12,10,20.90
2012,07,03,12,11,11.30
2012,07,03,12,12,16.10
2012,07,03,12,13,20.90
2012,07,03,12,14,16.10
2012,07,03,12,15,17.70
2012,07,03,12,16,22.50
2012,07,03,12,17,14.50
2012,07,03,12,18,16.10
2012,07,03,12,19,16.10
2012,07,03,12,20,17.70
2012,07,03,12,21,25.70
2012,07,03,12,22,24.20
2012,07,03,12,23,24.20
2012,07,03,12,24,37.00
2012,07,03,12,25,24.20
2012,07,03,12,26,20.90
2012,07,03,12,27,16.10
2012,07,03,12,28,19.30
2012,07,03,12,29,22.50
2012,07,03,12,30,3.20
2012,07,03,12,31,6.40
2012,07,03,12,32,16.10
2012,07,03,12,33,20.90
2012,07,03,12,34,22.50
2012,07,03,12,35,22.50
2012,07,03,12,36,9.60
2012,07,03,12,37,12.90
2012,07,03,12,38,8.10
2012,07,03,12,39,11.30
2012,07,03,12,40,14.50
2012,07,03,12,41,8.10
2012,07,03,12,42,17.70
2012,07,03,12,43,14.50
2012,07,03,12,44,24.20
2012,07,03,12,45,22.50
2012,07,03,12,46,29.00
2012,07,03,12,47,20.90
2012,07,03,12,48,16.10
2012,07,03,12,49,16.10
2012,07,03,12,50,25.70
2012,07,03,12,51,14.50
2012,07,03,12,52,6.40
2012,07,03,12,53,12.90
2012,07,03,12,54,20.90
2012,07,03,12,55,14.50
2012,07,03,12,56,14.50
2012,07,03,12,57,20.90
2012,07,03,12,58,16.10
2012,07,03,12,59,30.60
2012,07,03,13,00,16.10
2012,07,03,13,01,33.80
2012,07,03,13,02,33.80
2012,07,03,13,03,20.90
2012,07,03,13,04,24.20
2012,07,03,13,05,40.20
2012,07,03,13,06,14.50
2012,07,03,13,07,20.90
2012,07,03,13,08,9.60
2012,07,03,13,09,14.50
2012,07,03,13,10,8.10
2012,07,03,13,11,11.30
2012,07,03,13,12,29.00
2012,07,03,13,13,27.40
2012,07,03,13,14,29.00
2012,07,03,13,15,27.40
2012,07,03,13,16,27.40
2012,07,03,13,17,29.00
2012,07,03,13,18,27.40
2012,07,03,13,19,17.70
2012,07,03,13,20,27.40
2012,07,03,13,21,25.70
2012,07,03,13,22,33.80
2012,07,03,13,23,27.40
2012,07,03,13,24,24.20
2012,07,03,13,25,35.40
2012,07,03,13,26,29.00
2012,07,03,13,27,27.40
2012,07,03,13,28,29.00
2012,07,03,13,29,16.10
2012,07,03,13,30,35.40
2012,07,03,13,31,54.70
2012,07,03,13,32,20.90
2012,07,03,13,33,27.40
2012,07,03,13,34,25.70
2012,07,03,13,35,19.30
2012,07,03,13,36,33.80
2012,07,03,13,37,32.20
2012,07,03,13,38,25.70
2012,07,03,13,39,27.40
2012,07,03,13,40,20.90
2012,07,03,13,41,30.60
2012,07,03,13,42,32.20
2012,07,03,13,43,37.00
2012,07,03,13,44,25.70
2012,07,03,13,45,24.20
2012,07,03,13,46,38.60
2012,07,03,13,47,20.90
2012,07,03,13,48,29.00
2012,07,03,13,49,27.40
2012,07,03,13,50,32.20
2012,07,03,13,51,19.30
2012,07,03,13,52,11.30
2012,07,03,13,53,9.60
2012,07,03,13,54,27.40
2012,07,03,13,55,8.10
2012,07,03,13,56,22.50
2012,07,03,13,57,20.90
2012,07,03,13,58,25.70
2012,07,03,13,59,20.90
2012,07,03,14,00,14.50
2012,07,03,14,01,11.30
2012,07,03,14,02,11.30
2012,07,03,14,03,20.90
2012,07,03,14,04,22.50
2012,07,03,14,05,24.20
2012,07,03,14,06,20.90
2012,07,03,14,07,20.90
2012,07,03,14,08,27.40
2012,07,03,14,09,22.50
2012,07,03,14,10,14.50
2012,07,03,14,11,22.50
2012,07,03,14,12,24.20
2012,07,03,14,13,24.20
2012,07,03,14,14,22.50
2012,07,03,14,15,32.20
2012,07,03,14,16,29.00
2012,07,03,14,17,24.20
2012,07,03,14,18,29.00
2012,07,03,14,19,29.00
2012,07,03,14,20,17.70
2012,07,03,14,21,25.70
2012,07,03,14,22,17.70
2012,07,03,14,23,24.20
2012,07,03,14,24,25.70
2012,07,03,14,25,25.70
2012,07,03,14,26,27.40
2012,07,03,14,27,24.20
2012,07,03,14,28,29.00
2012,07,03,14,29,30.60
2012,07,03,14,30,22.50
2012,07,03,14,31,19.30
2012,07,03,14,32,19.30
2012,07,03,14,33,17.70
2012,07,03,14,34,17.70
2012,07,03,14,35,25.70
2012,07,03,14,36,11.30
2012,07,03,14,37,11.30
2012,07,03,14,38,9.60
2012,07,03,14,39,9.60
2012,07,03,14,40,12.90
2012,07,03,14,41,11.30
2012,07,03,14,42,11.30
2012,07,03,14,43,16.10
2012,07,03,14,44,6.40
2012,07,03,14,45,16.10
2012,07,03,14,46,6.40
2012,07,03,14,47,9.60
2012,07,03,14,48,8.10
2012,07,03,14,49,11.30
2012,07,03,14,50,6.40
2012,07,03,14,51,25.70
2012,07,03,14,52,19.30
2012,07,03,14,53,32.20
2012,07,03,14,54,17.70
2012,07,03,14,55,16.10
2012,07,03,14,56,11.30
2012,07,03,14,57,16.10
2012,07,03,14,58,19.30
2012,07,03,14,59,8.10
2012,07,03,15,00,20.90
2012,07,03,15,01,14.50
2012,07,03,15,02,19.30
2012,07,03,15,03,6.40
2012,07,03,15,04,6.40
2012,07,03,15,05,22.50
2012,07,03,15,06,11.30
2012,07,03,15,07,11.30
2012,07,03,15,08,14.50
2012,07,03,15,09,22.50
2012,07,03,15,10,27.40
2012,07,03,15,11,14.50
2012,07,03,15,12,9.60
2012,07,03,15,13,9.60
2012,07,03,15,14,25.70
2012,07,03,15,15,27.40
2012,07,03,15,16,20.90
2012,07,03,15,17,16.10
2012,07,03,15,18,19.30
2012,07,03,15,19,6.40
2012,07,03,15,20,29.00
2012,07,03,15,21,27.40
2012,07,03,15,22,22.50
2012,07,03,15,23,17.70
2012,07,03,15,24,11.30
2012,07,03,15,25,8.10
2012,07,03,15,26,16.10
2012,07,03,15,27,12.90
2012,07,03,15,28,11.30
2012,07,03,15,29,12.90
2012,07,03,15,30,9.60
2012,07,03,15,31,16.10
2012,07,03,15,32,25.70
2012,07,03,15,33,20.90
2012,07,03,15,34,35.40
2012,07,03,15,35,17.70
2012,07,03,15,36,12.90
2012,07,03,15,37,24.20
2012,07,03,15,38,16.10
2012,07,03,15,39,11.30
2012,07,03,15,40,22.50
2012,07,03,15,41,24.20
2012,07,03,15,42,24.20
2012,07,03,15,43,14.50
2012,07,03,15,44,17.70
2012,07,03,15,45,19.30
2012,07,03,15,46,20.90
2012,07,03,15,47,33.80
2012,07,03,15,48,20.90
2012,07,03,15,49,14.50
2012,07,03,15,50,12.90
2012,07,03,15,51,11.30
2012,07,03,15,52,20.90
2012,07,03,15,53,20.90
2012,07,03,15,54,19.30
2012,07,03,15,55,16.10
2012,07,03,15,56,25.70
2012,07,03,15,57,22.50
2012,07,03,15,58,17.70
2012,07,03,15,59,24.20
2012,07,03,16,00,29.00
2012,07,03,16,01,25.70
2012,07,03,16,02,16.10
2012,07,03,16,03,11.30
2012,07,03,16,04,12.90
2012,07,03,16,05,12.90
2012,07,03,16,06,17.70
2012,07,03,16,07,19.30
2012,07,03,16,08,17.70
2012,07,03,16,09,29.00
2012,07,03,16,10,20.90
2012,07,03,16,11,24.20
2012,07,03,16,12,20.90
2012,07,03,16,13,35.40
2012,07,03,16,14,14.50
2012,07,03,16,15,11.30
2012,07,03,16,16,14.50
2012,07,03,16,17,16.10
2012,07,03,16,18,19.30
2012,07,03,16,19,30.60
2012,07,03,16,20,27.40
2012,07,03,16,21,41.80
2012,07,03,16,22,20.90
2012,07,03,16,23,25.70
2012,07,03,16,24,25.70
2012,07,03,16,25,16.10
2012,07,03,16,26,17.70
2012,07,03,16,27,9.60
2012,07,03,16,28,17.70
2012,07,03,16,29,9.60
2012,07,03,16,30,19.30
2012,07,03,16,31,9.60
2012,07,03,16,32,19.30
2012,07,03,16,33,25.70
2012,07,03,16,34,22.50
2012,07,03,16,35,17.70
2012,07,03,16,36,19.30
2012,07,03,16,37,6.40
2012,07,03,16,38,19.30
2012,07,03,16,39,25.70
2012,07,03,16,40,30.60
2012,07,03,16,41,27.40
2012,07,03,16,42,22.50
2012,07,03,16,43,16.10
2012,07,03,16,44,20.90
2012,07,03,16,45,22.50
2012,07,03,16,46,16.10
2012,07,03,16,47,19.30
2012,07,03,16,48,8.10
2012,07,03,16,49,12.90
2012,07,03,16,50,24.20
2012,07,03,16,51,11.30
2012,07,03,16,52,25.70
2012,07,03,16,53,17.70
2012,07,03,16,54,14.50
2012,07,03,16,55,11.30
2012,07,03,16,56,14.50
2012,07,03,16,57,20.90
2012,07,03,16,58,20.90
2012,07,03,16,59,27.40
2012,07,03,17,00,22.50
2012,07,03,17,01,24.20
2012,07,03,17,02,29.00
2012,07,03,17,03,29.00
2012,07,03,17,04,22.50
2012,07,03,17,05,16.10
2012,07,03,17,06,16.10
2012,07,03,17,07,9.60
2012,07,03,17,08,3.20
2012,07,03,17,09,16.10
2012,07,03,17,10,17.70
2012,07,03,17,11,17.70
2012,07,03,17,12,11.30
2012,07,03,17,13,22.50
2012,07,03,17,14,16.10
2012,07,03,17,15,16.10
2012,07,03,17,16,16.10
2012,07,03,17,17,16.10
2012,07,03,17,18,25.70
2012,07,03,17,19,20.90
2012,07,03,17,20,11.30
2012,07,03,17,21,14.50
2012,07,03,17,22,17.70
2012,07,03,17,23,24.20
2012,07,03,17,24,4.80
2012,07,03,17,25,14.50
2012,07,03,17,26,9.60
2012,07,03,17,27,16.10
2012,07,03,17,28,19.30
2012,07,03,17,29,17.70
2012,07,03,17,30,25.70
2012,07,03,17,31,25.70
2012,07,03,17,32,20.90
2012,07,03,17,33,17.70
2012,07,03,17,34,35.40
2012,07,03,17,35,25.70
2012,07,03,17,36,29.00
2012,07,03,17,37,25.70
2012,07,03,17,38,25.70
2012,07,03,17,39,25.70
2012,07,03,17,40,11.30
2012,07,03,17,41,17.70
2012,07,03,17,42,17.70
2012,07,03,17,43,12.90
2012,07,03,17,44,14.50
2012,07,03,17,45,11.30
2012,07,03,17,46,9.60
2012,07,03,17,47,14.50
2012,07,03,17,48,12.90
2012,07,03,17,49,9.60
2012,07,03,17,50,14.50
2012,07,03,17,51,16.10
2012,07,03,17,52,16.10
2012,07,03,17,53,6.40
2012,07,03,17,54,24.20
2012,07,03,17,55,24.20
2012,07,03,17,56,17.70
2012,07,03,17,57,27.40
2012,07,03,17,58,20.90
2012,07,03,17,59,19.30
2012,07,03,18,00,22.50
2012,07,03,18,01,22.50
2012,07,03,18,02,22.50
2012,07,03,18,03,20.90
2012,07,03,18,04,19.30
2012,07,03,18,05,14.50
2012,07,03,18,06,24.20
2012,07,03,18,07,20.90
2012,07,03,18,08,16.10
2012,07,03,18,09,19.30
2012,07,03,18,10,9.60
2012,07,03,18,11,19.30
2012,07,03,18,12,17.70
2012,07,03,18,13,19.30
2012,07,03,18,14,17.70
2012,07,03,18,15,17.70
2012,07,03,18,16,4.80
2012,07,03,18,17,4.80
2012,07,03,18,18,19.30
2012,07,03,18,19,22.50
2012,07,03,18,20,14.50
2012,07,03,18,21,20.90
2012,07,03,18,22,22.50
2012,07,03,18,23,19.30
2012,07,03,18,24,25.70
2012,07,03,18,25,17.70
2012,07,03,18,26,24.20
2012,07,03,18,27,8.10
2012,07,03,18,28,11.30
2012,07,03,18,29,11.30
2012,07,03,18,30,29.00
2012,07,03,18,31,9.60
2012,07,03,18,32,20.90
2012,07,03,18,33,22.50
2012,07,03,18,34,24.20
2012,07,03,18,35,11.30
2012,07,03,18,36,8.10
2012,07,03,18,37,8.10
2012,07,03,18,38,17.70
2012,07,03,18,39,8.10
2012,07,03,18,40,11.30
2012,07,03,18,41,25.70
2012,07,03,18,42,19.30
2012,07,03,18,43,19.30
2012,07,03,18,44,17.70
2012,07,03,18,45,16.10
2012,07,03,18,46,17.70
2012,07,03,18,47,19.30
2012,07,03,18,48,20.90
2012,07,03,18,49,17.70
2012,07,03,18,50,27.40
2012,07,03,18,51,11.30
2012,07,03,18,52,24.20
2012,07,03,18,53,14.50
2012,07,03,18,54,14.50
2012,07,03,18,55,11.30
2012,07,03,18,56,14.50
2012,07,03,18,57,16.10
2012,07,03,18,58,17.70
2012,07,03,18,59,14.50
2012,07,03,19,00,14.50
2012,07,03,19,01,12.90
2012,07,03,19,02,17.70
2012,07,03,19,03,14.50
2012,07,03,19,04,9.60
2012,07,03,19,05,22.50
2012,07,03,19,06,19.30
2012,07,03,19,07,9.60
2012,07,03,19,08,22.50
2012,07,03,19,09,19.30
2012,07,03,19,10,19.30
2012,07,03,19,11,22.50
2012,07,03,19,12,16.10
2012,07,03,19,13,8.10
2012,07,03,19,14,16.10
2012,07,03,19,15,9.60
2012,07,03,19,16,16.10
2012,07,03,19,17,14.50
2012,07,03,19,18,12.90
2012,07,03,19,19,6.40
2012,07,03,19,20,11.30
2012,07,03,19,21,19.30
2012,07,03,19,22,16.10
2012,07,03,19,23,9.60
2012,07,03,19,24,9.60
2012,07,03,19,25,6.40
2012,07,03,19,26,6.40
2012,07,03,19,27,4.80
2012,07,03,19,28,20.90
2012,07,03,19,29,22.50
2012,07,03,19,30,8.10
2012,07,03,19,31,9.60
2012,07,03,19,32,11.30
2012,07,03,19,33,9.60
2012,07,03,19,34,8.10
2012,07,03,19,35,14.50
2012,07,03,19,36,9.60
2012,07,03,19,37,16.10
2012,07,03,19,38,14.50
2012,07,03,19,39,16.10
2012,07,03,19,40,9.60
2012,07,03,19,41,16.10
2012,07,03,19,42,8.10
2012,07,03,19,43,3.20
2012,07,03,19,44,11.30
2012,07,03,19,45,11.30